owner,sensor,date,latitude,longitude,vertical_datum,wind_speed,wind_to_direction,wind_speed_of_gust,qcFlag 
WAVCIS,ioos:station:WAVCIS:CSI09:1,2013-04-01T00:00:00Z,29.1015,-89.9782,0.0,6.881,265.0,,'11111222,11111222,99999999' 
WAVCIS,ioos:station:WAVCIS:CSI09:1,2013-04-01T01:00:00Z,29.1015,-89.9782,0.0,7.96,4.0,,'11111222,11111222,99999999' 
WAVCIS,ioos:station:WAVCIS:CSI09:1,2013-04-01T02:00:00Z,29.1015,-89.9782,0.0,5.202,151.0,,'11111222,11111222,99999999' 
WAVCIS,ioos:station:WAVCIS:CSI09:1,2013-04-01T03:00:00Z,29.1015,-89.9782,0.0,3.414,167.0,,'11111222,11111222,99999999' 
WAVCIS,ioos:station:WAVCIS:CSI09:1,2013-04-01T04:00:00Z,29.1015,-89.9782,0.0,3.174,150.0,,'11111222,11111222,99999999' 
WAVCIS,ioos:station:WAVCIS:CSI09:1,2013-04-01T05:00:00Z,29.1015,-89.9782,0.0,3.069,147.0,,'11111222,11111222,99999999' 
WAVCIS,ioos:station:WAVCIS:CSI09:1,2013-04-01T06:00:00Z,29.1015,-89.9782,0.0,2.016,119.0,,'11111222,11111222,99999999' 
WAVCIS,ioos:station:WAVCIS:CSI09:1,2013-04-01T07:00:00Z,29.1015,-89.9782,0.0,3.891,140.0,,'11111222,11111222,99999999' 
WAVCIS,ioos:station:WAVCIS:CSI09:1,2013-04-01T08:00:00Z,29.1015,-89.9782,0.0,1.252,244.0,,'11111222,11111222,99999999' 
WAVCIS,ioos:station:WAVCIS:CSI09:1,2013-04-01T09:00:00Z,29.1015,-89.9782,0.0,3.437,214.0,,'11111222,11111222,99999999' 
WAVCIS,ioos:station:WAVCIS:CSI09:1,2013-04-01T10:00:00Z,29.1015,-89.9782,0.0,2.794,201.0,,'11111222,11111222,99999999' 
WAVCIS,ioos:station:WAVCIS:CSI09:1,2013-04-01T11:00:00Z,29.1015,-89.9782,0.0,3.845,235.0,,'11111222,11111222,99999999' 
WAVCIS,ioos:station:WAVCIS:CSI09:1,2013-04-01T12:00:00Z,29.1015,-89.9782,0.0,3.179,322.0,,'11111222,11111222,99999999' 
WAVCIS,ioos:station:WAVCIS:CSI09:1,2013-04-01T13:00:00Z,29.1015,-89.9782,0.0,1.26,290.0,,'11111222,11111222,99999999' 
WAVCIS,ioos:station:WAVCIS:CSI09:1,2013-04-01T14:00:00Z,29.1015,-89.9782,0.0,2.652,281.0,,'11111222,11111222,99999999' 
WAVCIS,ioos:station:WAVCIS:CSI09:1,2013-04-01T15:00:00Z,29.1015,-89.9782,0.0,4.192,333.0,,'11111222,11111222,99999999' 
WAVCIS,ioos:station:WAVCIS:CSI09:1,2013-04-01T16:00:00Z,29.1015,-89.9782,0.0,4.894,334.0,,'11111222,11111222,99999999' 
WAVCIS,ioos:station:WAVCIS:CSI09:1,2013-04-01T17:00:00Z,29.1015,-89.9782,0.0,4.458,344.0,,'11111222,11111222,99999999' 
WAVCIS,ioos:station:WAVCIS:CSI09:1,2013-04-01T18:00:00Z,29.1015,-89.9782,0.0,3.769,0.0,,'11111222,11111222,99999999' 
WAVCIS,ioos:station:WAVCIS:CSI09:1,2013-04-01T19:00:00Z,29.1015,-89.9782,0.0,3.778,10.0,,'11111222,11111222,99999999' 
WAVCIS,ioos:station:WAVCIS:CSI09:1,2013-04-01T20:00:00Z,29.1015,-89.9782,0.0,5.396,11.0,,'11111222,11111222,99999999' 
WAVCIS,ioos:station:WAVCIS:CSI09:1,2013-04-01T21:00:00Z,29.1015,-89.9782,0.0,3.39,34.0,,'11111222,11111222,99999999' 
WAVCIS,ioos:station:WAVCIS:CSI09:1,2013-04-01T22:00:00Z,29.1015,-89.9782,0.0,3.077,85.0,,'11111222,11111222,99999999' 
WAVCIS,ioos:station:WAVCIS:CSI09:1,2013-04-01T23:00:00Z,29.1015,-89.9782,0.0,2.865,112.0,,'11111222,11111222,99999999' 
WAVCIS,ioos:station:WAVCIS:CSI09:1,2013-04-02T00:00:00Z,29.1015,-89.9782,0.0,3.91,120.0,,'11111222,11111222,99999999' 
WAVCIS,ioos:station:WAVCIS:CSI09:1,2013-04-02T01:00:00Z,29.1015,-89.9782,0.0,4.573,111.0,,'11111222,11111222,99999999' 
WAVCIS,ioos:station:WAVCIS:CSI09:1,2013-04-02T02:00:00Z,29.1015,-89.9782,0.0,4.446,118.0,,'11111222,11111222,99999999' 
WAVCIS,ioos:station:WAVCIS:CSI09:1,2013-04-02T03:00:00Z,29.1015,-89.9782,0.0,4.462,144.0,,'11111222,11111222,99999999' 
WAVCIS,ioos:station:WAVCIS:CSI09:1,2013-04-02T04:00:00Z,29.1015,-89.9782,0.0,3.879,152.0,,'11111222,11111222,99999999' 
WAVCIS,ioos:station:WAVCIS:CSI09:1,2013-04-02T05:00:00Z,29.1015,-89.9782,0.0,2.977,128.0,,'11111222,11111222,99999999' 
WAVCIS,ioos:station:WAVCIS:CSI09:1,2013-04-02T06:00:00Z,29.1015,-89.9782,0.0,2.688,74.0,,'11111222,11111222,99999999' 
WAVCIS,ioos:station:WAVCIS:CSI09:1,2013-04-02T07:00:00Z,29.1015,-89.9782,0.0,2.665,78.0,,'11111222,11111222,99999999' 
WAVCIS,ioos:station:WAVCIS:CSI09:1,2013-04-02T08:00:00Z,29.1015,-89.9782,0.0,4.075,70.0,,'11111222,11111222,99999999' 
WAVCIS,ioos:station:WAVCIS:CSI09:1,2013-04-02T09:00:00Z,29.1015,-89.9782,0.0,4.327,75.0,,'11111222,11111222,99999999' 
WAVCIS,ioos:station:WAVCIS:CSI09:1,2013-04-02T10:00:00Z,29.1015,-89.9782,0.0,5.855,78.0,,'11111222,11111222,99999999' 
WAVCIS,ioos:station:WAVCIS:CSI09:1,2013-04-02T11:00:00Z,29.1015,-89.9782,0.0,5.53,84.0,,'11111222,11111222,99999999' 
WAVCIS,ioos:station:WAVCIS:CSI09:1,2013-04-02T12:00:00Z,29.1015,-89.9782,0.0,5.479,78.0,,'11111222,11111222,99999999' 
WAVCIS,ioos:station:WAVCIS:CSI09:1,2013-04-02T13:00:00Z,29.1015,-89.9782,0.0,5.507,75.0,,'11111222,11111222,99999999' 
WAVCIS,ioos:station:WAVCIS:CSI09:1,2013-04-02T14:00:00Z,29.1015,-89.9782,0.0,6.414,88.0,,'11111222,11111222,99999999' 
WAVCIS,ioos:station:WAVCIS:CSI09:1,2013-04-02T15:00:00Z,29.1015,-89.9782,0.0,7.54,83.0,,'11111222,11111222,99999999' 
WAVCIS,ioos:station:WAVCIS:CSI09:1,2013-04-02T16:00:00Z,29.1015,-89.9782,0.0,7.33,78.0,,'11111222,11111222,99999999' 
WAVCIS,ioos:station:WAVCIS:CSI09:1,2013-04-02T17:00:00Z,29.1015,-89.9782,0.0,5.8,87.0,,'11111222,11111222,99999999' 
WAVCIS,ioos:station:WAVCIS:CSI09:1,2013-04-02T18:00:00Z,29.1015,-89.9782,0.0,5.179,79.0,,'11111222,11111222,99999999' 
WAVCIS,ioos:station:WAVCIS:CSI09:1,2013-04-02T19:00:00Z,29.1015,-89.9782,0.0,5.233,74.0,,'11111222,11111222,99999999' 
WAVCIS,ioos:station:WAVCIS:CSI09:1,2013-04-02T20:00:00Z,29.1015,-89.9782,0.0,6.331,80.0,,'11111222,11111222,99999999' 
WAVCIS,ioos:station:WAVCIS:CSI09:1,2013-04-02T21:00:00Z,29.1015,-89.9782,0.0,7.57,85.0,,'11111222,11111222,99999999' 
WAVCIS,ioos:station:WAVCIS:CSI09:1,2013-04-02T22:00:00Z,29.1015,-89.9782,0.0,7.3,89.0,,'11111222,11111222,99999999' 
WAVCIS,ioos:station:WAVCIS:CSI09:1,2013-04-02T23:00:00Z,29.1015,-89.9782,0.0,7.61,82.0,,'11111222,11111222,99999999' 
WAVCIS,ioos:station:WAVCIS:CSI09:1,2013-04-03T00:00:00Z,29.1015,-89.9782,0.0,5.51,75.0,,'11111222,11111222,99999999' 
WAVCIS,ioos:station:WAVCIS:CSI09:1,2013-04-03T01:00:00Z,29.1015,-89.9782,0.0,7.44,86.0,,'11111222,11111222,99999999' 
WAVCIS,ioos:station:WAVCIS:CSI09:1,2013-04-03T02:00:00Z,29.1015,-89.9782,0.0,7.86,80.0,,'11111222,11111222,99999999' 
WAVCIS,ioos:station:WAVCIS:CSI09:1,2013-04-03T03:00:00Z,29.1015,-89.9782,0.0,7.48,97.0,,'11111222,11111222,99999999' 
WAVCIS,ioos:station:WAVCIS:CSI09:1,2013-04-03T04:00:00Z,29.1015,-89.9782,0.0,7.06,101.0,,'11111222,11111222,99999999' 
WAVCIS,ioos:station:WAVCIS:CSI09:1,2013-04-03T05:00:00Z,29.1015,-89.9782,0.0,10.11,131.0,,'11111222,11111222,99999999' 
WAVCIS,ioos:station:WAVCIS:CSI09:1,2013-04-03T06:00:00Z,29.1015,-89.9782,0.0,6.385,131.0,,'11111222,11111222,99999999' 
WAVCIS,ioos:station:WAVCIS:CSI09:1,2013-04-03T07:00:00Z,29.1015,-89.9782,0.0,3.961,141.0,,'11111222,11111222,99999999' 
WAVCIS,ioos:station:WAVCIS:CSI09:1,2013-04-03T08:00:00Z,29.1015,-89.9782,0.0,1.591,202.0,,'11111222,11111222,99999999' 
WAVCIS,ioos:station:WAVCIS:CSI09:1,2013-04-03T09:00:00Z,29.1015,-89.9782,0.0,2.247,90.0,,'11111222,11111222,99999999' 
WAVCIS,ioos:station:WAVCIS:CSI09:1,2013-04-03T10:00:00Z,29.1015,-89.9782,0.0,1.13,68.0,,'11111222,11111222,99999999' 
WAVCIS,ioos:station:WAVCIS:CSI09:1,2013-04-03T11:00:00Z,29.1015,-89.9782,0.0,4.661,37.0,,'11111222,11111222,99999999' 
WAVCIS,ioos:station:WAVCIS:CSI09:1,2013-04-03T12:00:00Z,29.1015,-89.9782,0.0,11.15,56.0,,'11111222,11111222,99999999' 
WAVCIS,ioos:station:WAVCIS:CSI09:1,2013-04-03T13:00:00Z,29.1015,-89.9782,0.0,11.81,37.0,,'11111222,11111222,99999999' 
WAVCIS,ioos:station:WAVCIS:CSI09:1,2013-04-03T14:00:00Z,29.1015,-89.9782,0.0,11.86,19.0,,'11111222,11111222,99999999' 
WAVCIS,ioos:station:WAVCIS:CSI09:1,2013-04-03T15:00:00Z,29.1015,-89.9782,0.0,10.71,0.0,,'11111222,11111222,99999999' 
WAVCIS,ioos:station:WAVCIS:CSI09:1,2013-04-03T16:00:00Z,29.1015,-89.9782,0.0,17.16,61.0,,'11111222,11111222,99999999' 
WAVCIS,ioos:station:WAVCIS:CSI09:1,2013-04-03T17:00:00Z,29.1015,-89.9782,0.0,22.72,83.0,,'11111222,11111222,99999999' 
WAVCIS,ioos:station:WAVCIS:CSI09:1,2013-04-03T18:00:00Z,29.1015,-89.9782,0.0,15.6,82.0,,'11111222,11111222,99999999' 
WAVCIS,ioos:station:WAVCIS:CSI09:1,2013-04-03T19:00:00Z,29.1015,-89.9782,0.0,7.13,99.0,,'11111222,11111222,99999999' 
WAVCIS,ioos:station:WAVCIS:CSI09:1,2013-04-03T20:00:00Z,29.1015,-89.9782,0.0,4.346,123.0,,'11111222,11111222,99999999' 
WAVCIS,ioos:station:WAVCIS:CSI09:1,2013-04-03T21:00:00Z,29.1015,-89.9782,0.0,1.711,11.0,,'11111222,11111222,99999999' 
WAVCIS,ioos:station:WAVCIS:CSI09:1,2013-04-03T22:00:00Z,29.1015,-89.9782,0.0,3.228,36.0,,'11111222,11111222,99999999' 
WAVCIS,ioos:station:WAVCIS:CSI09:1,2013-04-03T23:00:00Z,29.1015,-89.9782,0.0,2.163,70.0,,'11111222,11111222,99999999' 
WAVCIS,ioos:station:WAVCIS:CSI09:1,2013-04-04T00:00:00Z,29.1015,-89.9782,0.0,2.25,74.0,,'11111222,11111222,99999999' 
WAVCIS,ioos:station:WAVCIS:CSI09:1,2013-04-04T01:00:00Z,29.1015,-89.9782,0.0,3.29,56.0,,'11111222,11111222,99999999' 
WAVCIS,ioos:station:WAVCIS:CSI09:1,2013-04-04T02:00:00Z,29.1015,-89.9782,0.0,3.199,64.0,,'11111222,11111222,99999999' 
WAVCIS,ioos:station:WAVCIS:CSI09:1,2013-04-04T03:00:00Z,29.1015,-89.9782,0.0,8.47,41.0,,'11111222,11111222,99999999' 
WAVCIS,ioos:station:WAVCIS:CSI09:1,2013-04-04T04:00:00Z,29.1015,-89.9782,0.0,8.4,40.0,,'11111222,11111222,99999999' 
WAVCIS,ioos:station:WAVCIS:CSI09:1,2013-04-04T05:00:00Z,29.1015,-89.9782,0.0,8.51,49.0,,'11111222,11111222,99999999' 
WAVCIS,ioos:station:WAVCIS:CSI09:1,2013-04-04T06:00:00Z,29.1015,-89.9782,0.0,6.98,28.0,,'11111222,11111222,99999999' 
WAVCIS,ioos:station:WAVCIS:CSI09:1,2013-04-04T07:00:00Z,29.1015,-89.9782,0.0,6.626,23.0,,'11111222,11111222,99999999' 
WAVCIS,ioos:station:WAVCIS:CSI09:1,2013-04-04T08:00:00Z,29.1015,-89.9782,0.0,5.087,41.0,,'11111222,11111222,99999999' 
WAVCIS,ioos:station:WAVCIS:CSI09:1,2013-04-04T09:00:00Z,29.1015,-89.9782,0.0,3.923,42.0,,'11111222,11111222,99999999' 
WAVCIS,ioos:station:WAVCIS:CSI09:1,2013-04-04T10:00:00Z,29.1015,-89.9782,0.0,5.296,72.0,,'11111222,11111222,99999999' 
WAVCIS,ioos:station:WAVCIS:CSI09:1,2013-04-04T11:00:00Z,29.1015,-89.9782,0.0,3.497,15.0,,'11111222,11111222,99999999' 
WAVCIS,ioos:station:WAVCIS:CSI09:1,2013-04-04T12:00:00Z,29.1015,-89.9782,0.0,4.118,333.0,,'11111222,11111222,99999999' 
WAVCIS,ioos:station:WAVCIS:CSI09:1,2013-04-04T13:00:00Z,29.1015,-89.9782,0.0,7.67,318.0,,'11111222,11111222,99999999' 
WAVCIS,ioos:station:WAVCIS:CSI09:1,2013-04-04T14:00:00Z,29.1015,-89.9782,0.0,8.05,320.0,,'11111222,11111222,99999999' 
WAVCIS,ioos:station:WAVCIS:CSI09:1,2013-04-04T15:00:00Z,29.1015,-89.9782,0.0,7.19,326.0,,'11111222,11111222,99999999' 
WAVCIS,ioos:station:WAVCIS:CSI09:1,2013-04-04T16:00:00Z,29.1015,-89.9782,0.0,7.85,314.0,,'11111222,11111222,99999999' 
WAVCIS,ioos:station:WAVCIS:CSI09:1,2013-04-04T17:00:00Z,29.1015,-89.9782,0.0,8.15,295.0,,'11111222,11111222,99999999' 
WAVCIS,ioos:station:WAVCIS:CSI09:1,2013-04-04T18:00:00Z,29.1015,-89.9782,0.0,7.38,291.0,,'11111222,11111222,99999999' 
WAVCIS,ioos:station:WAVCIS:CSI09:1,2013-04-04T19:00:00Z,29.1015,-89.9782,0.0,7.26,285.0,,'11111222,11111222,99999999' 
WAVCIS,ioos:station:WAVCIS:CSI09:1,2013-04-04T20:00:00Z,29.1015,-89.9782,0.0,6.621,285.0,,'11111222,11111222,99999999' 
WAVCIS,ioos:station:WAVCIS:CSI09:1,2013-04-04T21:00:00Z,29.1015,-89.9782,0.0,5.273,279.0,,'11111222,11111222,99999999' 
WAVCIS,ioos:station:WAVCIS:CSI09:1,2013-04-04T22:00:00Z,29.1015,-89.9782,0.0,6.02,281.0,,'11111222,11111222,99999999' 
WAVCIS,ioos:station:WAVCIS:CSI09:1,2013-04-04T23:00:00Z,29.1015,-89.9782,0.0,6.644,280.0,,'11111222,11111222,99999999' 
WAVCIS,ioos:station:WAVCIS:CSI09:1,2013-04-05T00:00:00Z,29.1015,-89.9782,0.0,7.34,292.0,,'11111222,11111222,99999999' 
WAVCIS,ioos:station:WAVCIS:CSI09:1,2013-04-05T01:00:00Z,29.1015,-89.9782,0.0,8.87,328.0,,'11111222,11111222,99999999' 
WAVCIS,ioos:station:WAVCIS:CSI09:1,2013-04-05T02:00:00Z,29.1015,-89.9782,0.0,10.76,328.0,,'11111222,11111222,99999999' 
WAVCIS,ioos:station:WAVCIS:CSI09:1,2013-04-05T03:00:00Z,29.1015,-89.9782,0.0,10.32,307.0,,'11111222,11111222,99999999' 
WAVCIS,ioos:station:WAVCIS:CSI09:1,2013-04-05T04:00:00Z,29.1015,-89.9782,0.0,9.98,306.0,,'11111222,11111222,99999999' 
WAVCIS,ioos:station:WAVCIS:CSI09:1,2013-04-05T05:00:00Z,29.1015,-89.9782,0.0,8.45,306.0,,'11111222,11111222,99999999' 
WAVCIS,ioos:station:WAVCIS:CSI09:1,2013-04-05T06:00:00Z,29.1015,-89.9782,0.0,10.35,319.0,,'11111222,11111222,99999999' 
WAVCIS,ioos:station:WAVCIS:CSI09:1,2013-04-05T07:00:00Z,29.1015,-89.9782,0.0,9.33,321.0,,'11111222,11111222,99999999' 
WAVCIS,ioos:station:WAVCIS:CSI09:1,2013-04-05T08:00:00Z,29.1015,-89.9782,0.0,8.98,314.0,,'11111222,11111222,99999999' 
WAVCIS,ioos:station:WAVCIS:CSI09:1,2013-04-05T09:00:00Z,29.1015,-89.9782,0.0,9.4,317.0,,'11111222,11111222,99999999' 
WAVCIS,ioos:station:WAVCIS:CSI09:1,2013-04-05T10:00:00Z,29.1015,-89.9782,0.0,9.84,331.0,,'11111222,11111222,99999999' 
WAVCIS,ioos:station:WAVCIS:CSI09:1,2013-04-05T11:00:00Z,29.1015,-89.9782,0.0,9.88,324.0,,'11111222,11111222,99999999' 
WAVCIS,ioos:station:WAVCIS:CSI09:1,2013-04-05T12:00:00Z,29.1015,-89.9782,0.0,10.25,332.0,,'11111222,11111222,99999999' 
WAVCIS,ioos:station:WAVCIS:CSI09:1,2013-04-05T13:00:00Z,29.1015,-89.9782,0.0,9.98,339.0,,'11111222,11111222,99999999' 
WAVCIS,ioos:station:WAVCIS:CSI09:1,2013-04-05T14:00:00Z,29.1015,-89.9782,0.0,10.07,332.0,,'11111222,11111222,99999999' 
WAVCIS,ioos:station:WAVCIS:CSI09:1,2013-04-05T15:00:00Z,29.1015,-89.9782,0.0,9.21,334.0,,'11111222,11111222,99999999' 
WAVCIS,ioos:station:WAVCIS:CSI09:1,2013-04-05T16:00:00Z,29.1015,-89.9782,0.0,9.53,352.0,,'11111222,11111222,99999999' 
WAVCIS,ioos:station:WAVCIS:CSI09:1,2013-04-05T17:00:00Z,29.1015,-89.9782,0.0,8.74,351.0,,'11111222,11111222,99999999' 
WAVCIS,ioos:station:WAVCIS:CSI09:1,2013-04-05T18:00:00Z,29.1015,-89.9782,0.0,8.95,353.0,,'11111222,11111222,99999999' 
WAVCIS,ioos:station:WAVCIS:CSI09:1,2013-04-05T19:00:00Z,29.1015,-89.9782,0.0,8.91,347.0,,'11111222,11111222,99999999' 
WAVCIS,ioos:station:WAVCIS:CSI09:1,2013-04-05T20:00:00Z,29.1015,-89.9782,0.0,6.924,349.0,,'11111222,11111222,99999999' 
WAVCIS,ioos:station:WAVCIS:CSI09:1,2013-04-05T21:00:00Z,29.1015,-89.9782,0.0,7.42,356.0,,'11111222,11111222,99999999' 
WAVCIS,ioos:station:WAVCIS:CSI09:1,2013-04-05T22:00:00Z,29.1015,-89.9782,0.0,7.26,6.0,,'11111222,11111222,99999999' 
WAVCIS,ioos:station:WAVCIS:CSI09:1,2013-04-05T23:00:00Z,29.1015,-89.9782,0.0,5.346,13.0,,'11111222,11111222,99999999' 
WAVCIS,ioos:station:WAVCIS:CSI09:1,2013-04-06T00:00:00Z,29.1015,-89.9782,0.0,4.585,357.0,,'11111222,11111222,99999999' 
WAVCIS,ioos:station:WAVCIS:CSI09:1,2013-04-06T01:00:00Z,29.1015,-89.9782,0.0,5.254,339.0,,'11111222,11111222,99999999' 
WAVCIS,ioos:station:WAVCIS:CSI09:1,2013-04-06T02:00:00Z,29.1015,-89.9782,0.0,5.603,324.0,,'11111222,11111222,99999999' 
WAVCIS,ioos:station:WAVCIS:CSI09:1,2013-04-06T03:00:00Z,29.1015,-89.9782,0.0,5.518,319.0,,'11111222,11111222,99999999' 
WAVCIS,ioos:station:WAVCIS:CSI09:1,2013-04-06T04:00:00Z,29.1015,-89.9782,0.0,5.507,296.0,,'11111222,11111222,99999999' 
WAVCIS,ioos:station:WAVCIS:CSI09:1,2013-04-06T05:00:00Z,29.1015,-89.9782,0.0,4.302,301.0,,'11111222,11111222,99999999' 
WAVCIS,ioos:station:WAVCIS:CSI09:1,2013-04-06T06:00:00Z,29.1015,-89.9782,0.0,3.754,7.0,,'11111222,11111222,99999999' 
WAVCIS,ioos:station:WAVCIS:CSI09:1,2013-04-06T07:00:00Z,29.1015,-89.9782,0.0,3.53,356.0,,'11111222,11111222,99999999' 
WAVCIS,ioos:station:WAVCIS:CSI09:1,2013-04-06T08:00:00Z,29.1015,-89.9782,0.0,3.164,17.0,,'11111222,11111222,99999999' 
WAVCIS,ioos:station:WAVCIS:CSI09:1,2013-04-06T09:00:00Z,29.1015,-89.9782,0.0,3.423,63.0,,'11111222,11111222,99999999' 
WAVCIS,ioos:station:WAVCIS:CSI09:1,2013-04-06T10:00:00Z,29.1015,-89.9782,0.0,3.012,102.0,,'11111222,11111222,99999999' 
WAVCIS,ioos:station:WAVCIS:CSI09:1,2013-04-06T11:00:00Z,29.1015,-89.9782,0.0,3.891,127.0,,'11111222,11111222,99999999' 
WAVCIS,ioos:station:WAVCIS:CSI09:1,2013-04-06T12:00:00Z,29.1015,-89.9782,0.0,2.681,140.0,,'11111222,11111222,99999999' 
WAVCIS,ioos:station:WAVCIS:CSI09:1,2013-04-06T13:00:00Z,29.1015,-89.9782,0.0,2.729,125.0,,'11111222,11111222,99999999' 
WAVCIS,ioos:station:WAVCIS:CSI09:1,2013-04-06T14:00:00Z,29.1015,-89.9782,0.0,3.118,111.0,,'11111222,11111222,99999999' 
WAVCIS,ioos:station:WAVCIS:CSI09:1,2013-04-06T15:00:00Z,29.1015,-89.9782,0.0,3.311,92.0,,'11111222,11111222,99999999' 
WAVCIS,ioos:station:WAVCIS:CSI09:1,2013-04-06T16:00:00Z,29.1015,-89.9782,0.0,4.334,90.0,,'11111222,11111222,99999999' 
WAVCIS,ioos:station:WAVCIS:CSI09:1,2013-04-06T17:00:00Z,29.1015,-89.9782,0.0,2.627,86.0,,'11111222,11111222,99999999' 
WAVCIS,ioos:station:WAVCIS:CSI09:1,2013-04-06T18:00:00Z,29.1015,-89.9782,0.0,1.732,86.0,,'11111222,11111222,99999999' 
WAVCIS,ioos:station:WAVCIS:CSI09:1,2013-04-06T19:00:00Z,29.1015,-89.9782,0.0,2.243,91.0,,'11111222,11111222,99999999' 
WAVCIS,ioos:station:WAVCIS:CSI09:1,2013-04-06T20:00:00Z,29.1015,-89.9782,0.0,3.411,96.0,,'11111222,11111222,99999999' 
WAVCIS,ioos:station:WAVCIS:CSI09:1,2013-04-06T21:00:00Z,29.1015,-89.9782,0.0,4.473,86.0,,'11111222,11111222,99999999' 
WAVCIS,ioos:station:WAVCIS:CSI09:1,2013-04-06T22:00:00Z,29.1015,-89.9782,0.0,5.3,86.0,,'11111222,11111222,99999999' 
WAVCIS,ioos:station:WAVCIS:CSI09:1,2013-04-06T23:00:00Z,29.1015,-89.9782,0.0,4.711,99.0,,'11111222,11111222,99999999' 
WAVCIS,ioos:station:WAVCIS:CSI09:1,2013-04-07T00:00:00Z,29.1015,-89.9782,0.0,5.334,104.0,,'11111222,11111222,99999999' 
WAVCIS,ioos:station:WAVCIS:CSI09:1,2013-04-07T01:00:00Z,29.1015,-89.9782,0.0,5.141,94.0,,'11111222,11111222,99999999' 
WAVCIS,ioos:station:WAVCIS:CSI09:1,2013-04-07T02:00:00Z,29.1015,-89.9782,0.0,5.44,90.0,,'11111222,11111222,99999999' 
WAVCIS,ioos:station:WAVCIS:CSI09:1,2013-04-07T03:00:00Z,29.1015,-89.9782,0.0,4.845,100.0,,'11111222,11111222,99999999' 
WAVCIS,ioos:station:WAVCIS:CSI09:1,2013-04-07T04:00:00Z,29.1015,-89.9782,0.0,4.946,106.0,,'11111222,11111222,99999999' 
WAVCIS,ioos:station:WAVCIS:CSI09:1,2013-04-07T05:00:00Z,29.1015,-89.9782,0.0,4.608,125.0,,'11111222,11111222,99999999' 
WAVCIS,ioos:station:WAVCIS:CSI09:1,2013-04-07T06:00:00Z,29.1015,-89.9782,0.0,5.506,126.0,,'11111222,11111222,99999999' 
WAVCIS,ioos:station:WAVCIS:CSI09:1,2013-04-07T07:00:00Z,29.1015,-89.9782,0.0,5.552,128.0,,'11111222,11111222,99999999' 
WAVCIS,ioos:station:WAVCIS:CSI09:1,2013-04-07T08:00:00Z,29.1015,-89.9782,0.0,5.19,129.0,,'11111222,11111222,99999999' 
WAVCIS,ioos:station:WAVCIS:CSI09:1,2013-04-07T09:00:00Z,29.1015,-89.9782,0.0,3.853,126.0,,'11111222,11111222,99999999' 
WAVCIS,ioos:station:WAVCIS:CSI09:1,2013-04-07T10:00:00Z,29.1015,-89.9782,0.0,3.925,125.0,,'11111222,11111222,99999999' 
WAVCIS,ioos:station:WAVCIS:CSI09:1,2013-04-07T11:00:00Z,29.1015,-89.9782,0.0,2.747,105.0,,'11111222,11111222,99999999' 
WAVCIS,ioos:station:WAVCIS:CSI09:1,2013-04-07T12:00:00Z,29.1015,-89.9782,0.0,3.929,115.0,,'11111222,11111222,99999999' 
WAVCIS,ioos:station:WAVCIS:CSI09:1,2013-04-07T13:00:00Z,29.1015,-89.9782,0.0,4.419,117.0,,'11111222,11111222,99999999' 
WAVCIS,ioos:station:WAVCIS:CSI09:1,2013-04-07T14:00:00Z,29.1015,-89.9782,0.0,3.716,108.0,,'11111222,11111222,99999999' 
WAVCIS,ioos:station:WAVCIS:CSI09:1,2013-04-07T15:00:00Z,29.1015,-89.9782,0.0,3.085,96.0,,'11111222,11111222,99999999' 
WAVCIS,ioos:station:WAVCIS:CSI09:1,2013-04-07T16:00:00Z,29.1015,-89.9782,0.0,4.611,90.0,,'11111222,11111222,99999999' 
WAVCIS,ioos:station:WAVCIS:CSI09:1,2013-04-07T17:00:00Z,29.1015,-89.9782,0.0,3.656,96.0,,'11111222,11111222,99999999' 
WAVCIS,ioos:station:WAVCIS:CSI09:1,2013-04-07T18:00:00Z,29.1015,-89.9782,0.0,4.12,96.0,,'11111222,11111222,99999999' 
WAVCIS,ioos:station:WAVCIS:CSI09:1,2013-04-07T19:00:00Z,29.1015,-89.9782,0.0,3.389,101.0,,'11111222,11111222,99999999' 
WAVCIS,ioos:station:WAVCIS:CSI09:1,2013-04-07T20:00:00Z,29.1015,-89.9782,0.0,3.877,106.0,,'11111222,11111222,99999999' 
WAVCIS,ioos:station:WAVCIS:CSI09:1,2013-04-07T21:00:00Z,29.1015,-89.9782,0.0,4.89,111.0,,'11111222,11111222,99999999' 
WAVCIS,ioos:station:WAVCIS:CSI09:1,2013-04-07T22:00:00Z,29.1015,-89.9782,0.0,5.274,113.0,,'11111222,11111222,99999999' 
WAVCIS,ioos:station:WAVCIS:CSI09:1,2013-04-07T23:00:00Z,29.1015,-89.9782,0.0,5.094,116.0,,'11111222,11111222,99999999' 
WAVCIS,ioos:station:WAVCIS:CSI09:1,2013-04-08T00:00:00Z,29.1015,-89.9782,0.0,5.133,126.0,,'11111222,11111222,99999999' 
WAVCIS,ioos:station:WAVCIS:CSI09:1,2013-04-08T01:00:00Z,29.1015,-89.9782,0.0,6.461,129.0,,'11111222,11111222,99999999' 
WAVCIS,ioos:station:WAVCIS:CSI09:1,2013-04-08T02:00:00Z,29.1015,-89.9782,0.0,6.622,132.0,,'11111222,11111222,99999999' 
WAVCIS,ioos:station:WAVCIS:CSI09:1,2013-04-08T03:00:00Z,29.1015,-89.9782,0.0,6.105,133.0,,'11111222,11111222,99999999' 
WAVCIS,ioos:station:WAVCIS:CSI09:1,2013-04-08T04:00:00Z,29.1015,-89.9782,0.0,6.995,139.0,,'11111222,11111222,99999999' 
WAVCIS,ioos:station:WAVCIS:CSI09:1,2013-04-08T05:00:00Z,29.1015,-89.9782,0.0,5.023,148.0,,'11111222,11111222,99999999' 
WAVCIS,ioos:station:WAVCIS:CSI09:1,2013-04-08T06:00:00Z,29.1015,-89.9782,0.0,4.775,145.0,,'11111222,11111222,99999999' 
WAVCIS,ioos:station:WAVCIS:CSI09:1,2013-04-08T07:00:00Z,29.1015,-89.9782,0.0,4.842,145.0,,'11111222,11111222,99999999' 
WAVCIS,ioos:station:WAVCIS:CSI09:1,2013-04-08T08:00:00Z,29.1015,-89.9782,0.0,5.366,168.0,,'11111222,11111222,99999999' 
WAVCIS,ioos:station:WAVCIS:CSI09:1,2013-04-08T09:00:00Z,29.1015,-89.9782,0.0,5.184,148.0,,'11111222,11111222,99999999' 
WAVCIS,ioos:station:WAVCIS:CSI09:1,2013-04-08T10:00:00Z,29.1015,-89.9782,0.0,4.339,131.0,,'11111222,11111222,99999999' 
WAVCIS,ioos:station:WAVCIS:CSI09:1,2013-04-08T11:00:00Z,29.1015,-89.9782,0.0,4.245,123.0,,'11111222,11111222,99999999' 
WAVCIS,ioos:station:WAVCIS:CSI09:1,2013-04-08T12:00:00Z,29.1015,-89.9782,0.0,3.927,101.0,,'11111222,11111222,99999999' 
WAVCIS,ioos:station:WAVCIS:CSI09:1,2013-04-08T13:00:00Z,29.1015,-89.9782,0.0,4.468,109.0,,'11111222,11111222,99999999' 
WAVCIS,ioos:station:WAVCIS:CSI09:1,2013-04-08T14:00:00Z,29.1015,-89.9782,0.0,3.747,102.0,,'11111222,11111222,99999999' 
WAVCIS,ioos:station:WAVCIS:CSI09:1,2013-04-08T15:00:00Z,29.1015,-89.9782,0.0,6.551,111.0,,'11111222,11111222,99999999' 
WAVCIS,ioos:station:WAVCIS:CSI09:1,2013-04-08T16:00:00Z,29.1015,-89.9782,0.0,5.224,104.0,,'11111222,11111222,99999999' 
WAVCIS,ioos:station:WAVCIS:CSI09:1,2013-04-08T17:00:00Z,29.1015,-89.9782,0.0,4.004,96.0,,'11111222,11111222,99999999' 
WAVCIS,ioos:station:WAVCIS:CSI09:1,2013-04-08T18:00:00Z,29.1015,-89.9782,0.0,4.546,95.0,,'11111222,11111222,99999999' 
WAVCIS,ioos:station:WAVCIS:CSI09:1,2013-04-08T19:00:00Z,29.1015,-89.9782,0.0,4.982,94.0,,'11111222,11111222,99999999' 
WAVCIS,ioos:station:WAVCIS:CSI09:1,2013-04-08T20:00:00Z,29.1015,-89.9782,0.0,5.833,94.0,,'11111222,11111222,99999999' 
WAVCIS,ioos:station:WAVCIS:CSI09:1,2013-04-08T21:00:00Z,29.1015,-89.9782,0.0,5.054,101.0,,'11111222,11111222,99999999' 
WAVCIS,ioos:station:WAVCIS:CSI09:1,2013-04-08T22:00:00Z,29.1015,-89.9782,0.0,6.555,109.0,,'11111222,11111222,99999999' 
WAVCIS,ioos:station:WAVCIS:CSI09:1,2013-04-08T23:00:00Z,29.1015,-89.9782,0.0,5.107,122.0,,'11111222,11111222,99999999' 
WAVCIS,ioos:station:WAVCIS:CSI09:1,2013-04-09T00:00:00Z,29.1015,-89.9782,0.0,6.705,116.0,,'11111222,11111222,99999999' 
WAVCIS,ioos:station:WAVCIS:CSI09:1,2013-04-09T01:00:00Z,29.1015,-89.9782,0.0,7.84,117.0,,'11111222,11111222,99999999' 
WAVCIS,ioos:station:WAVCIS:CSI09:1,2013-04-09T02:00:00Z,29.1015,-89.9782,0.0,8.44,111.0,,'11111222,11111222,99999999' 
WAVCIS,ioos:station:WAVCIS:CSI09:1,2013-04-09T03:00:00Z,29.1015,-89.9782,0.0,11.64,118.0,,'11111222,11111222,99999999' 
WAVCIS,ioos:station:WAVCIS:CSI09:1,2013-04-09T04:00:00Z,29.1015,-89.9782,0.0,9.89,123.0,,'11111222,11111222,99999999' 
WAVCIS,ioos:station:WAVCIS:CSI09:1,2013-04-09T05:00:00Z,29.1015,-89.9782,0.0,8.07,126.0,,'11111222,11111222,99999999' 
WAVCIS,ioos:station:WAVCIS:CSI09:1,2013-04-09T06:00:00Z,29.1015,-89.9782,0.0,9.07,128.0,,'11111222,11111222,99999999' 
WAVCIS,ioos:station:WAVCIS:CSI09:1,2013-04-09T07:00:00Z,29.1015,-89.9782,0.0,9.57,132.0,,'11111222,11111222,99999999' 